User: anonymous   Login
Location: �clusier
(49.9361°N, 2.7869°E)
Time: 16:43:46
(UTC+00:00)
Language:

Cosmos 1605 Rocket - Orbit

View from above orbital plane
View from above orbital plane
View from above satellite
View from above satellite

Ground track
Ground track

The orbit data is extracted from the following two-line orbital elements,

1 15360U 84109B   21269.64994598  .00000009  00000-0 -57823-5 0  9991
2 15360  82.9406 327.6679 0041306   5.0829 355.0739 13.76785543856318
Epoch (UTC): 26 September 2021 15:35:55
Eccentricity: 0.0041306
inclination: 82.9406°
perigee height: 945 km
apogee height: 1005 km
right ascension of ascending node: 327.6679°
argument of perigee: 5.0829°
revolutions per day: 13.76785543
mean anomaly at epoch: 355.0739°
orbit number at epoch: 85631

The dashed part of the orbit path shows where the satellite is in the earth's shadow,  

DLR